QPF
0.00 0.00 0.00 0.00 0.00 0.00 0.00 0.00 0.01 0.03 0.04 0.06 0.08 0.08 0.03 0.01 0.01 0.00 0.00 0.00 0.00 0.01 0.00 0.02 0.02 0.01 0.00 0.00 0.00 0.00 0.00 0.00 0.00 0.00 0.00 0.01 0.01 0.01 0.02 0.01 0.06 0.05 0.03 0.00 0.02 0.26 0.14
0.00 0.00 0.00 0.00 0.00 0.00 0.00 0.00 0.00 0.01 0.01 0.06 0.11 0.07 0.05 0.05 0.03 0.01 0.00 0.00 0.00 0.01 0.00 0.00 0.01 0.02 0.00 0.00 0.00 0.00 0.00 0.00 0.00 0.00 0.00 0.01 0.02 0.06 0.01 0.01 0.04 0.04 0.01 0.02 0.01 0.22 0.26
0.00 0.00 0.00 0.00 0.00 0.00 0.00 0.00 0.00 0.00 0.02 0.08 0.11 0.08 0.07 0.05 0.05 0.03 0.01 0.00 0.00 0.00 0.00 0.00 0.01 0.03 0.00 0.00 0.00 0.00 0.00 0.00 0.00 0.00 0.00 0.01 0.06 0.28 0.12 0.05 0.02 0.04 0.05 0.02 0.05 0.14 0.36
0.00 0.00 0.00 0.00 0.00 0.00 0.00 0.00 0.00 0.00 0.02 0.08 0.06 0.04 0.05 0.08 0.07 0.05 0.01 0.00 0.00 0.00 0.00 0.00 0.01 0.01 0.00 0.00 0.00 0.00 0.00 0.00 0.00 0.00 0.00 0.00 0.05 0.09 0.12 0.14 0.06 0.06 0.06 0.02 0.08 0.16 0.23
0.00 0.00 0.01 0.01 0.01 0.01 0.00 0.00 0.00 0.01 0.01 0.01 0.02 0.04 0.08 0.08 0.09 0.04 0.00 0.00 0.00 0.00 0.00 0.00 0.00 0.00 0.00 0.00 0.00 0.00 0.00 0.00 0.00 0.00 0.00 0.00 0.08 0.18 0.13 0.12 0.08 0.07 0.02 0.01 0.16 0.15 0.14
0.00 0.00 0.01 0.02 0.02 0.02 0.01 0.01 0.00 0.00 0.01 0.01 0.01 0.04 0.06 0.11 0.04 0.01 0.00 0.00 0.00 0.00 0.00 0.00 0.00 0.00 0.00 0.00 0.00 0.00 0.00 0.00 0.00 0.01 0.01 0.02 0.04 0.27 0.34 0.07 0.06 0.03 0.01 0.09 0.15 0.14 0.12
0.00 0.00 0.01 0.02 0.02 0.02 0.02 0.01 0.00 0.00 0.00 0.01 0.00 0.02 0.06 0.07 0.02 0.02 0.01 0.00 0.00 0.00 0.00 0.00 0.00 0.00 0.00 0.00 0.00 0.00 0.00 0.00 0.00 0.01 0.02 0.01 0.02 0.08 0.23 0.06 0.01 0.01 0.01 0.28 0.22 0.08 0.11
0.00 0.00 0.01 0.01 0.02 0.02 0.02 0.01 0.01 0.00 0.00 0.00 0.00 0.03 0.06 0.04 0.04 0.02 0.01 0.00 0.00 0.00 0.00 0.00 0.00 0.00 0.00 0.00 0.00 0.00 0.00 0.01 0.01 0.01 0.01 0.00 0.00 0.01 0.04 0.04 0.02 0.02 0.01 0.13 0.29 0.11 0.09
0.00 0.00 0.00 0.00 0.00 0.01 0.01 0.01 0.01 0.01 0.00 0.00 0.02 0.09 0.10 0.04 0.03 0.01 0.00 0.00 0.00 0.00 0.00 0.00 0.00 0.00 0.00 0.00 0.00 0.01 0.01 0.02 0.01 0.00 0.01 0.00 0.00 0.00 0.00 0.01 0.05 0.01 0.00 0.01 0.04 0.14 0.12
0.00 0.00 0.00 0.00 0.00 0.00 0.00 0.01 0.01 0.01 0.00 0.00 0.02 0.11 0.13 0.03 0.01 0.00 0.00 0.00 0.00 0.00 0.00 0.00 0.00 0.00 0.00 0.00 0.02 0.01 0.00 0.02 0.01 0.00 0.00 0.00 0.00 0.00 0.00 0.00 0.10 0.04 0.00 0.00 0.00 0.06 0.18
0.00 0.00 0.00 0.00 0.00 0.00 0.00 0.00 0.01 0.01 0.00 0.00 0.01 0.08 0.12 0.03 0.02 0.01 0.00 0.00 0.00 0.00 0.00 0.00 0.00 0.00 0.00 0.00 0.00 0.01 0.05 0.10 0.03 0.00 0.00 0.00 0.00 0.00 0.03 0.02 0.09 0.01 0.00 0.00 0.00 0.02 0.10
0.00 0.00 0.00 0.00 0.00 0.00 0.00 0.00 0.00 0.00 0.00 0.00 0.01 0.06 0.12 0.04 0.01 0.00 0.00 0.00 0.00 0.00 0.00 0.00 0.00 0.00 0.00 0.00 0.00 0.00 0.03 0.01 0.02 0.02 0.04 0.06 0.01 0.05 0.11 0.02 0.02 0.00 0.00 0.00 0.00 0.02 0.07
0.00 0.00 0.00 0.00 0.00 0.00 0.00 0.00 0.00 0.00 0.00 0.00 0.01 0.11 0.20 0.04 0.01 0.00 0.00 0.00 0.00 0.00 0.00 0.00 0.00 0.00 0.00 0.00 0.00 0.00 0.00 0.00 0.02 0.16 0.17 0.20 0.08 0.01 0.01 0.01 0.01 0.00 0.01 0.06 0.05 0.02 0.03
0.01 0.01 0.00 0.00 0.00 0.00 0.00 0.00 0.00 0.00 0.00 0.00 0.01 0.12 0.12 0.03 0.01 0.00 0.00 0.00 0.00 0.00 0.00 0.00 0.00 0.00 0.00 0.00 0.00 0.00 0.00 0.00 0.00 0.00 0.01 0.02 0.03 0.01 0.01 0.00 0.03 0.01 0.00 0.01 0.01 0.00 0.00
0.00 0.01 0.00 0.01 0.00 0.01 0.01 0.00 0.00 0.01 0.01 0.07 0.06 0.05 0.03 0.02 0.03 0.02 0.01 0.01 0.00 0.00 0.00 0.00 0.00 0.00 0.00 0.00 0.00 0.00 0.00 0.00 0.00 0.00 0.00 0.00 0.04 0.01 0.01 0.00 0.02 0.03 0.00 0.00 0.00 0.00 0.00
0.01 0.01 0.01 0.01 0.01 0.02 0.02 0.00 0.01 0.04 0.13 0.35 0.26 0.08 0.04 0.04 0.06 0.06 0.05 0.01 0.00 0.00 0.00 0.00 0.00 0.00 0.00 0.00 0.00 0.00 0.00 0.00 0.00 0.00 0.00 0.00 0.00 0.00 0.00 0.04 0.03 0.01 0.00 0.00 0.00 0.00 0.00
0.01 0.01 0.01 0.02 0.03 0.03 0.03 0.01 0.02 0.03 0.08 0.25 0.39 0.18 0.07 0.08 0.13 0.12 0.06 0.00 0.00 0.00 0.00 0.00 0.00 0.00 0.00 0.00 0.00 0.00 0.00 0.00 0.00 0.00 0.00 0.00 0.00 0.00 0.00 0.04 0.01 0.00 0.00 0.00 0.00 0.00 0.00
0.01 0.01 0.02 0.04 0.03 0.04 0.04 0.02 0.01 0.02 0.06 0.12 0.31 0.17 0.10 0.18 0.20 0.08 0.01 0.00 0.00 0.00 0.00 0.00 0.00 0.00 0.00 0.00 0.00 0.00 0.00 0.00 0.00 0.00 0.00 0.00 0.00 0.00 0.00 0.00 0.00 0.00 0.00 0.00 0.00 0.00 0.00
0.01 0.01 0.02 0.04 0.04 0.04 0.04 0.02 0.02 0.03 0.05 0.20 0.18 0.09 0.21 0.24 0.14 0.03 0.01 0.00 0.00 0.00 0.00 0.00 0.00 0.00 0.00 0.00 0.00 0.00 0.00 0.00 0.00 0.00 0.00 0.00 0.00 0.00 0.00 0.00 0.00 0.00 0.00 0.00 0.00 0.00 0.00
0.01 0.01 0.03 0.05 0.04 0.04 0.03 0.02 0.04 0.03 0.03 0.24 0.15 0.10 0.20 0.25 0.09 0.03 0.05 0.02 0.00 0.00 0.00 0.00 0.00 0.00 0.00 0.00 0.00 0.00 0.00 0.00 0.00 0.00 0.00 0.00 0.00 0.00 0.00 0.00 0.00 0.00 0.00 0.00 0.00 0.00 0.00
0.01 0.02 0.03 0.04 0.03 0.03 0.03 0.03 0.04 0.02 0.06 0.39 0.18 0.08 0.06 0.09 0.05 0.07 0.05 0.00 0.00 0.00 0.00 0.00 0.00 0.00 0.00 0.00 0.00 0.00 0.00 0.00 0.00 0.00 0.00 0.00 0.00 0.00 0.00 0.00 0.00 0.00 0.00 0.00 0.00 0.00 0.00
0.01 0.02 0.04 0.03 0.04 0.03 0.03 0.04 0.03 0.03 0.11 0.19 0.11 0.06 0.07 0.10 0.11 0.09 0.02 0.00 0.00 0.00 0.00 0.00 0.00 0.00 0.00 0.00 0.00 0.00 0.00 0.00 0.00 0.00 0.00 0.00 0.00 0.00 0.00 0.00 0.00 0.00 0.00 0.00 0.00 0.00 0.00
0.01 0.02 0.03 0.03 0.03 0.03 0.04 0.05 0.05 0.02 0.15 0.17 0.08 0.06 0.10 0.11 0.06 0.02 0.00 0.00 0.00 0.00 0.00 0.00 0.00 0.00 0.00 0.00 0.00 0.00 0.00 0.00 0.00 0.00 0.00 0.00 0.00 0.00 0.00 0.00 0.00 0.00 0.00 0.00 0.00 0.00 0.00
0.02 0.03 0.03 0.03 0.03 0.04 0.05 0.05 0.04 0.03 0.20 0.24 0.10 0.08 0.08 0.06 0.01 0.00 0.00 0.00 0.00 0.00 0.00 0.00 0.00 0.00 0.00 0.00 0.00 0.00 0.00 0.00 0.00 0.00 0.00 0.00 0.00 0.00 0.00 0.00 0.00 0.00 0.00 0.00 0.00 0.00 0.00
0.02 0.03 0.03 0.03 0.03 0.05 0.05 0.03 0.04 0.06 0.16 0.19 0.10 0.07 0.03 0.01 0.00 0.00 0.00 0.00 0.00 0.00 0.00 0.00 0.00 0.00 0.00 0.00 0.00 0.00 0.00 0.00 0.00 0.00 0.00 0.00 0.00 0.00 0.00 0.00 0.00 0.00 0.00 0.00 0.00 0.00 0.00
0.02 0.02 0.02 0.02 0.03 0.06 0.05 0.03 0.06 0.08 0.09 0.08 0.04 0.01 0.00 0.00 0.00 0.00 0.00 0.00 0.00 0.00 0.00 0.00 0.00 0.00 0.00 0.00 0.00 0.00 0.00 0.00 0.00 0.00 0.00 0.00 0.00 0.00 0.00 0.00 0.00 0.00 0.00 0.00 0.00 0.00 0.00
0.01 0.01 0.01 0.01 0.02 0.04 0.02 0.02 0.06 0.16 0.08 0.01 0.01 0.00 0.00 0.00 0.00 0.00 0.00 0.00 0.00 0.00 0.00 0.00 0.00 0.00 0.00 0.00 0.00 0.00 0.00 0.00 0.00 0.00 0.00 0.00 0.00 0.00 0.00 0.00 0.00 0.00 0.00 0.00 0.00 0.00 0.00
0.01 0.00 0.01 0.01 0.01 0.00 0.00 0.02 0.07 0.07 0.03 0.00 0.01 0.00 0.00 0.00 0.00 0.00 0.00 0.00 0.00 0.00 0.00 0.00 0.00 0.00 0.00 0.00 0.00 0.00 0.00 0.00 0.00 0.00 0.00 0.00 0.00 0.00 0.00 0.00 0.00 0.00 0.00 0.00 0.00 0.00 0.00
0.01 0.01 0.02 0.02 0.00 0.00 0.00 0.01 0.10 0.04 0.00 0.00 0.00 0.00 0.00 0.00 0.00 0.00 0.00 0.00 0.00 0.00 0.00 0.00 0.00 0.00 0.00 0.00 0.00 0.00 0.00 0.00 0.00 0.00 0.00 0.00 0.00 0.00 0.00 0.00 0.00 0.00 0.00 0.00 0.00 0.00 0.00
MSLP
1022.94 1022.47 1022.04 1021.47 1020.99 1020.66 1019.79 1019.19 1018.58 1017.87 1017.08 1015.76 1015.97 1016.33 1016.70 1016.84 1016.88 1016.87 1016.63 1016.60 1016.39 1016.19 1016.04 1015.67 1015.68 1015.78 1016.03 1016.13 1015.17 1014.03 1013.61 1013.56 1013.56 1013.77 1013.87 1014.03 1014.04 1013.89 1013.02 1012.53 1012.79 1012.87 1011.50 1010.89 1010.44 1009.89 1010.28
1022.75 1022.40 1021.89 1021.43 1020.98 1020.51 1019.94 1019.26 1018.62 1017.90 1016.91 1015.60 1015.39 1015.69 1016.08 1016.49 1016.78 1016.60 1016.48 1016.40 1016.17 1015.84 1015.93 1015.54 1015.52 1015.80 1016.11 1015.63 1014.25 1014.00 1013.75 1013.51 1013.51 1013.66 1013.79 1013.84 1013.63 1013.47 1013.08 1012.34 1012.42 1012.07 1011.68 1011.00 1010.54 1010.21 1010.56
1022.84 1022.35 1021.94 1021.40 1020.89 1020.54 1019.82 1019.05 1018.67 1017.95 1017.24 1016.28 1015.90 1015.51 1015.40 1016.03 1016.29 1016.36 1016.25 1016.26 1016.10 1015.71 1015.75 1015.32 1015.43 1015.59 1015.78 1014.88 1013.93 1013.75 1013.69 1013.57 1013.59 1013.75 1013.83 1013.51 1013.45 1013.48 1012.70 1012.01 1011.63 1011.72 1011.75 1011.31 1010.83 1010.92 1011.08
1022.73 1022.24 1021.95 1021.44 1020.96 1020.35 1019.60 1019.03 1018.55 1017.86 1017.15 1016.34 1015.58 1015.04 1014.73 1015.19 1015.67 1016.01 1016.04 1016.06 1015.84 1015.78 1015.52 1015.33 1015.26 1015.39 1015.16 1013.80 1013.81 1013.68 1013.58 1013.47 1013.48 1013.61 1013.74 1013.39 1013.25 1012.89 1012.09 1010.96 1010.86 1011.28 1011.64 1011.41 1011.11 1011.30 1012.06
1022.57 1022.29 1022.01 1021.43 1020.80 1020.19 1019.55 1018.97 1018.23 1017.74 1017.21 1016.25 1015.34 1014.61 1014.32 1014.73 1015.00 1015.29 1015.68 1015.87 1015.49 1015.47 1015.31 1015.17 1015.30 1015.45 1014.50 1013.53 1013.79 1013.63 1013.55 1013.59 1013.53 1013.27 1013.24 1013.18 1013.13 1012.53 1011.36 1011.00 1010.80 1011.12 1011.13 1011.36 1011.25 1011.21 1012.27
1022.57 1022.35 1021.89 1021.34 1020.77 1020.28 1019.48 1019.07 1018.39 1017.71 1017.04 1016.29 1015.30 1014.72 1014.22 1014.39 1014.71 1014.90 1015.18 1015.34 1015.19 1015.35 1015.13 1015.08 1015.20 1015.70 1014.23 1013.83 1013.80 1013.69 1013.56 1013.62 1013.44 1013.17 1012.80 1012.89 1012.60 1012.37 1011.98 1011.28 1010.51 1010.75 1011.58 1011.52 1011.20 1010.99 1011.46
1022.75 1022.39 1021.73 1021.39 1020.84 1020.26 1019.65 1019.01 1018.31 1017.66 1016.86 1016.12 1015.32 1014.79 1013.73 1014.19 1014.70 1014.72 1015.13 1015.58 1015.79 1015.66 1015.04 1014.22 1013.95 1013.74 1013.46 1013.82 1013.79 1013.63 1013.48 1013.43 1013.38 1013.15 1012.65 1012.06 1012.12 1011.81 1011.31 1011.06 1010.61 1010.26 1010.92 1011.45 1011.94 1011.83 1011.94
1022.62 1022.23 1021.71 1021.09 1020.60 1020.11 1019.53 1018.98 1018.23 1017.51 1016.67 1015.91 1015.36 1014.57 1013.41 1013.99 1014.29 1014.55 1014.99 1015.33 1015.01 1014.81 1014.11 1013.58 1013.58 1013.46 1013.31 1013.46 1013.64 1013.36 1013.29 1013.37 1013.05 1012.67 1012.25 1011.96 1011.40 1011.13 1011.18 1011.06 1010.66 1010.76 1010.93 1011.53 1011.73 1011.52 1011.26
1022.44 1021.79 1021.17 1020.62 1020.16 1019.69 1019.23 1018.76 1018.30 1017.32 1016.63 1016.13 1015.32 1014.83 1014.04 1013.82 1014.23 1014.57 1014.49 1014.45 1014.46 1014.63 1014.25 1013.14 1012.85 1012.85 1013.07 1013.53 1013.27 1013.05 1013.17 1013.07 1012.84 1012.42 1011.96 1011.45 1011.16 1010.79 1010.37 1010.39 1010.84 1010.51 1010.04 1010.49 1010.58 1011.72 1011.64
1021.86 1021.23 1020.78 1020.29 1019.95 1019.48 1018.97 1018.35 1017.80 1017.23 1016.69 1016.01 1015.35 1014.48 1014.30 1013.93 1014.62 1014.14 1014.03 1013.61 1014.50 1014.63 1014.31 1013.05 1012.48 1012.33 1012.85 1012.94 1012.77 1012.72 1013.02 1013.02 1012.31 1012.01 1011.60 1011.27 1011.00 1010.55 1010.62 1010.67 1010.88 1010.60 1010.24 1010.32 1011.17 1011.61 1012.65
1021.65 1021.30 1020.78 1020.28 1019.73 1019.35 1018.58 1018.10 1017.49 1016.92 1016.45 1015.83 1015.06 1014.07 1013.97 1013.51 1013.56 1013.88 1013.46 1013.48 1014.44 1014.58 1014.40 1012.86 1012.25 1011.89 1012.27 1012.70 1012.38 1012.26 1012.50 1012.46 1011.88 1011.53 1011.63 1011.33 1010.81 1010.73 1010.48 1010.57 1010.73 1010.53 1010.31 1010.65 1011.27 1011.60 1012.20
1021.55 1021.08 1020.54 1020.04 1019.58 1019.15 1018.60 1018.05 1017.45 1016.81 1016.04 1015.43 1014.83 1014.31 1013.47 1013.58 1013.74 1013.35 1013.32 1013.73 1014.66 1015.14 1013.65 1012.45 1012.05 1011.89 1012.22 1012.22 1012.15 1012.06 1011.92 1012.14 1011.37 1011.30 1011.16 1011.12 1010.80 1010.58 1010.53 1010.38 1010.13 1010.48 1010.49 1010.47 1011.43 1012.05 1013.18
1021.24 1020.74 1020.28 1019.76 1019.29 1018.78 1018.19 1017.64 1017.03 1016.36 1015.56 1014.84 1014.14 1014.04 1014.27 1013.25 1012.77 1012.84 1013.35 1014.22 1015.05 1014.37 1012.99 1012.48 1012.03 1011.85 1011.97 1011.99 1011.85 1011.74 1011.61 1011.48 1011.27 1011.69 1011.28 1011.52 1010.99 1010.80 1010.77 1010.79 1010.91 1010.85 1011.24 1011.85 1012.44 1012.92 1013.08
1020.97 1020.41 1019.91 1019.39 1018.83 1018.19 1017.67 1017.12 1016.46 1015.75 1014.95 1014.06 1013.02 1012.10 1012.13 1012.76 1012.71 1012.77 1013.60 1014.55 1014.36 1012.60 1012.23 1011.58 1011.56 1011.81 1012.03 1012.09 1011.96 1011.70 1011.65 1011.64 1011.25 1011.43 1011.61 1011.74 1011.81 1011.78 1011.25 1011.42 1011.38 1011.78 1011.80 1011.93 1012.30 1012.73 1013.10
1020.47 1019.89 1019.45 1019.02 1018.40 1017.73 1017.29 1016.65 1015.89 1015.03 1014.28 1013.86 1013.21 1010.63 1011.18 1011.93 1012.62 1012.65 1013.53 1013.89 1012.03 1011.38 1011.00 1010.95 1011.47 1011.89 1012.18 1012.08 1012.24 1011.88 1011.68 1011.51 1011.28 1011.35 1011.64 1012.08 1012.58 1012.27 1011.86 1011.65 1011.91 1012.01 1011.95 1011.48 1011.95 1012.74 1013.13
1020.36 1019.74 1019.08 1018.45 1017.89 1017.50 1016.95 1016.41 1015.61 1014.49 1013.87 1013.59 1012.96 1010.90 1010.63 1011.08 1012.25 1012.86 1013.49 1012.67 1011.49 1010.60 1010.07 1010.28 1010.97 1011.50 1012.11 1012.26 1012.33 1011.96 1011.63 1011.35 1011.25 1011.02 1011.24 1011.96 1012.79 1012.85 1012.48 1012.21 1012.27 1011.81 1011.60 1011.82 1012.06 1013.33 1013.78
1019.64 1019.28 1018.58 1017.91 1017.35 1017.02 1016.56 1016.00 1015.29 1014.25 1013.52 1013.03 1011.88 1010.75 1010.54 1011.12 1012.09 1012.99 1012.60 1011.93 1010.93 1010.08 1009.47 1009.67 1010.47 1011.29 1011.80 1012.12 1012.33 1012.18 1011.87 1011.39 1011.14 1011.29 1011.42 1011.90 1012.50 1013.59 1013.23 1013.20 1012.63 1012.14 1011.76 1011.94 1012.63 1014.01 1014.59
1019.00 1018.43 1018.03 1017.43 1016.99 1016.60 1015.99 1015.41 1014.85 1013.98 1013.43 1013.05 1012.52 1011.71 1010.68 1011.04 1012.03 1012.13 1011.87 1011.41 1010.52 1009.80 1009.32 1009.21 1009.64 1010.51 1011.43 1012.00 1012.15 1011.94 1011.61 1011.35 1011.02 1011.02 1011.68 1012.09 1012.93 1013.71 1013.90 1013.30 1013.03 1012.87 1012.56 1012.66 1013.43 1015.07 1015.65
1018.62 1018.16 1017.58 1016.97 1016.51 1016.05 1015.55 1014.82 1014.29 1013.83 1013.53 1013.35 1012.64 1011.74 1010.81 1010.98 1011.33 1011.60 1011.69 1011.24 1010.43 1009.72 1009.09 1009.05 1009.43 1009.87 1010.81 1011.40 1011.91 1011.76 1011.44 1011.16 1010.99 1011.22 1011.79 1012.28 1013.63 1014.85 1014.50 1013.55 1012.73 1012.35 1012.32 1012.98 1013.87 1015.14 1015.98
1018.04 1017.52 1016.99 1016.47 1015.79 1015.39 1014.98 1014.46 1013.82 1013.43 1013.31 1013.35 1012.80 1011.58 1010.92 1011.31 1011.46 1011.70 1011.75 1011.56 1010.56 1009.42 1009.05 1008.83 1009.09 1009.56 1010.37 1011.13 1011.29 1011.51 1011.42 1011.24 1011.11 1011.45 1011.81 1012.33 1013.86 1014.68 1015.14 1014.48 1013.92 1013.73 1013.53 1013.75 1014.37 1015.44 1015.47
1017.41 1017.00 1016.43 1015.75 1015.22 1014.75 1014.30 1013.90 1013.55 1013.11 1013.04 1013.39 1012.38 1011.42 1011.01 1011.12 1011.66 1012.00 1012.06 1011.27 1010.39 1009.41 1009.01 1008.81 1009.25 1009.48 1010.13 1011.12 1011.48 1011.61 1011.69 1011.75 1011.76 1011.90 1012.35 1012.94 1014.32 1015.06 1015.53 1015.25 1014.61 1014.18 1014.07 1014.11 1014.40 1014.65 1014.77
1016.79 1016.50 1015.79 1015.16 1014.58 1014.18 1013.72 1013.26 1012.85 1012.71 1012.55 1012.57 1011.73 1011.13 1011.12 1011.40 1011.42 1012.00 1011.99 1011.19 1010.16 1009.41 1009.15 1009.40 1009.40 1009.71 1010.07 1010.93 1011.24 1011.58 1011.63 1011.81 1012.08 1012.67 1013.19 1013.78 1015.17 1015.60 1016.02 1015.39 1014.81 1014.54 1014.41 1014.34 1014.44 1014.52 1014.43
1016.20 1015.84 1015.10 1014.26 1013.86 1013.46 1012.98 1012.66 1012.14 1012.07 1012.22 1011.55 1010.64 1010.93 1011.13 1011.43 1011.47 1011.73 1011.65 1011.28 1010.29 1009.68 1009.67 1009.55 1009.83 1010.23 1010.59 1010.73 1011.07 1011.42 1011.61 1012.02 1012.26 1012.92 1013.57 1014.39 1015.50 1016.31 1016.88 1016.25 1015.54 1014.75 1013.76 1013.86 1013.95 1013.86 1013.99
1015.61 1015.15 1014.42 1013.67 1013.08 1012.59 1012.24 1011.77 1011.52 1011.25 1011.17 1011.07 1010.67 1010.73 1011.15 1011.70 1011.74 1011.44 1011.53 1011.51 1010.56 1010.13 1010.14 1010.42 1010.24 1010.43 1011.22 1010.82 1011.22 1011.64 1012.15 1012.52 1012.88 1013.42 1013.55 1014.59 1015.65 1016.65 1017.36 1016.86 1016.02 1014.42 1013.80 1013.59 1013.77 1013.81 1013.85
1015.17 1014.40 1013.79 1013.16 1012.54 1012.15 1011.64 1011.28 1010.85 1010.18 1009.22 1010.19 1010.63 1010.71 1011.11 1011.58 1011.65 1011.71 1011.84 1011.66 1010.93 1011.02 1010.99 1011.03 1011.08 1011.14 1011.05 1011.27 1012.24 1012.81 1013.33 1013.41 1013.94 1014.20 1014.26 1014.35 1015.46 1016.95 1017.48 1017.27 1015.82 1014.28 1014.15 1013.99 1013.90 1013.84 1013.85
1014.67 1013.82 1013.16 1012.70 1012.01 1011.45 1010.92 1010.43 1009.87 1009.26 1009.17 1010.14 1010.83 1010.79 1011.01 1011.78 1012.84 1012.79 1012.24 1011.71 1011.42 1011.63 1011.92 1011.93 1011.67 1011.39 1011.49 1012.44 1013.21 1013.89 1014.39 1014.45 1014.72 1014.83 1014.85 1014.93 1015.23 1016.38 1017.28 1017.09 1015.89 1014.59 1013.90 1013.57 1013.73 1014.28 1014.19
1014.08 1013.38 1012.59 1011.98 1011.34 1010.59 1010.14 1009.81 1009.20 1009.12 1009.24 1009.61 1010.85 1010.69 1011.13 1012.48 1013.52 1013.44 1012.82 1012.19 1011.74 1012.03 1012.63 1012.61 1012.27 1012.08 1012.18 1013.18 1014.19 1014.78 1015.16 1015.23 1015.38 1015.43 1015.53 1015.60 1015.87 1016.32 1016.77 1016.74 1015.51 1014.24 1013.93 1013.93 1014.57 1015.42 1014.72
1013.69 1013.03 1012.19 1011.38 1010.62 1010.00 1009.44 1009.03 1008.60 1008.54 1009.30 1009.19 1011.28 1010.98 1011.12 1013.01 1014.06 1013.85 1013.38 1012.80 1012.48 1012.38 1012.95 1013.20 1013.05 1013.08 1013.39 1014.09 1015.00 1015.35 1015.71 1015.71 1015.75 1015.79 1015.75 1015.86 1016.21 1016.41 1016.75 1016.56 1015.53 1014.26 1014.37 1014.67 1014.85 1014.91 1014.94
1013.23 1012.68 1011.89 1011.13 1010.27 1009.62 1008.69 1007.90 1007.84 1008.48 1008.84 1009.02 1010.88 1011.10 1011.65 1012.70 1014.32 1014.22 1013.92 1013.68 1013.62 1013.41 1013.21 1013.56 1013.65 1013.49 1013.76 1014.34 1015.38 1015.83 1016.13 1016.35 1016.15 1016.37 1016.02 1016.00 1015.63 1016.00 1016.13 1015.44 1014.72 1014.66 1014.80 1014.81 1014.86 1015.15 1015.40
Thickness
5583 5581 5578 5577 5576 5572 5575 5576 5575 5577 5581 5588 5581 5576 5568 5562 5556 5551 5550 5546 5543 5539 5534 5532 5523 5513 5505 5495 5491 5488 5478 5468 5459 5455 5454 5450 5451 5453 5461 5465 5469 5474 5507 5530 5549 5564 5573
5576 5571 5570 5568 5567 5564 5564 5564 5564 5566 5572 5579 5579 5573 5565 5558 5550 5546 5542 5540 5537 5534 5526 5523 5514 5504 5493 5488 5489 5477 5468 5459 5454 5451 5448 5448 5453 5456 5455 5465 5473 5493 5506 5525 5544 5556 5555
5566 5564 5560 5558 5556 5553 5555 5555 5552 5555 5557 5563 5565 5566 5563 5555 5548 5542 5537 5533 5530 5526 5519 5517 5506 5497 5486 5483 5479 5470 5459 5449 5448 5446 5443 5450 5453 5449 5464 5473 5485 5495 5503 5521 5536 5545 5549
5557 5555 5551 5548 5543 5542 5544 5544 5542 5545 5547 5551 5557 5559 5560 5554 5546 5538 5532 5526 5524 5518 5514 5509 5501 5492 5480 5484 5472 5464 5454 5445 5446 5444 5444 5451 5455 5457 5468 5487 5494 5494 5505 5514 5527 5534 5535
5548 5543 5539 5537 5536 5535 5534 5533 5536 5535 5536 5542 5548 5553 5554 5549 5544 5537 5529 5522 5520 5514 5509 5504 5496 5483 5479 5481 5471 5464 5451 5443 5443 5447 5450 5455 5458 5465 5484 5493 5501 5505 5512 5517 5526 5535 5534
5537 5532 5528 5526 5524 5521 5521 5519 5521 5523 5526 5532 5539 5543 5545 5542 5539 5535 5527 5521 5517 5509 5505 5500 5492 5478 5481 5481 5468 5462 5454 5446 5446 5450 5458 5459 5465 5465 5469 5493 5509 5512 5506 5514 5527 5541 5542
5524 5519 5517 5512 5509 5507 5505 5506 5509 5511 5516 5521 5528 5532 5538 5534 5530 5530 5524 5514 5506 5499 5501 5500 5498 5491 5491 5477 5470 5465 5457 5454 5453 5455 5462 5474 5474 5476 5474 5503 5509 5519 5515 5517 5522 5531 5538
5511 5506 5502 5499 5495 5491 5491 5491 5494 5498 5503 5510 5515 5522 5532 5527 5526 5523 5519 5508 5506 5505 5504 5503 5498 5491 5488 5480 5473 5467 5462 5459 5462 5465 5473 5478 5481 5494 5493 5502 5510 5516 5519 5514 5521 5537 5545
5497 5493 5488 5484 5480 5476 5475 5475 5475 5482 5488 5494 5504 5509 5517 5520 5517 5514 5515 5511 5505 5500 5497 5508 5502 5495 5489 5480 5478 5470 5464 5463 5466 5473 5479 5486 5493 5502 5511 5513 5513 5525 5533 5534 5544 5535 5544
5485 5480 5475 5470 5465 5462 5458 5459 5461 5465 5471 5480 5489 5499 5502 5510 5505 5511 5510 5512 5500 5495 5466 5504 5503 5498 5489 5486 5484 5477 5467 5467 5476 5484 5492 5495 5501 5508 5510 5516 5512 5525 5536 5541 5534 5539 5536
5474 5466 5459 5453 5448 5443 5440 5439 5441 5447 5452 5463 5476 5489 5490 5502 5504 5505 5511 5507 5495 5490 5455 5505 5501 5501 5496 5492 5494 5491 5479 5478 5491 5496 5497 5500 5508 5507 5521 5520 5518 5526 5535 5538 5539 5538 5541
5459 5450 5441 5434 5427 5422 5419 5417 5419 5425 5434 5446 5457 5470 5480 5487 5491 5499 5503 5499 5490 5476 5475 5497 5503 5502 5498 5498 5497 5496 5492 5489 5500 5505 5505 5507 5515 5519 5520 5527 5531 5532 5534 5541 5538 5536 5534
5444 5433 5422 5415 5408 5403 5399 5394 5397 5401 5414 5426 5443 5453 5458 5476 5490 5495 5496 5489 5466 5476 5500 5494 5499 5503 5503 5506 5506 5506 5507 5506 5503 5505 5509 5496 5517 5521 5523 5525 5530 5532 5527 5528 5533 5531 5537
5426 5415 5406 5399 5391 5384 5377 5371 5372 5373 5382 5397 5427 5448 5461 5472 5482 5489 5486 5479 5468 5499 5493 5511 5507 5503 5502 5503 5508 5510 5508 5505 5515 5509 5495 5509 5521 5514 5522 5523 5527 5525 5529 5531 5536 5538 5535
5413 5402 5393 5384 5375 5368 5360 5355 5350 5351 5363 5376 5404 5443 5454 5467 5474 5481 5478 5477 5491 5498 5508 5510 5505 5501 5499 5504 5505 5509 5510 5510 5515 5514 5511 5499 5517 5519 5522 5526 5527 5528 5520 5542 5533 5534 5522
5397 5389 5380 5371 5364 5355 5348 5341 5341 5353 5365 5374 5394 5433 5454 5466 5468 5472 5472 5491 5496 5508 5516 5512 5501 5500 5490 5498 5503 5508 5515 5519 5522 5524 5521 5519 5511 5517 5524 5528 5527 5532 5543 5542 5532 5539 5546
5389 5378 5369 5362 5355 5347 5342 5339 5344 5355 5366 5377 5400 5435 5453 5461 5461 5461 5480 5484 5501 5510 5519 5514 5501 5495 5498 5497 5500 5507 5513 5523 5526 5526 5522 5520 5514 5519 5520 5515 5526 5533 5537 5536 5534 5526 5536
5383 5373 5361 5355 5348 5342 5341 5343 5349 5357 5366 5378 5393 5421 5448 5455 5456 5468 5482 5489 5505 5511 5516 5517 5514 5507 5495 5494 5501 5510 5520 5523 5526 5532 5526 5523 5502 5498 5518 5525 5526 5529 5537 5537 5530 5533 5492
5374 5364 5354 5348 5342 5340 5340 5346 5352 5359 5365 5374 5398 5421 5440 5450 5466 5477 5481 5492 5501 5509 5512 5514 5516 5515 5507 5502 5507 5515 5521 5525 5531 5530 5530 5527 5496 5468 5499 5519 5529 5534 5538 5526 5518 5510 5506
5368 5358 5350 5343 5340 5339 5341 5348 5358 5364 5370 5382 5399 5426 5443 5449 5462 5470 5473 5476 5494 5509 5510 5516 5518 5515 5511 5510 5515 5511 5521 5527 5532 5532 5533 5527 5500 5505 5485 5519 5519 5528 5534 5534 5524 5485 5516
5367 5355 5348 5341 5340 5340 5346 5353 5362 5369 5374 5382 5404 5427 5446 5458 5464 5463 5463 5482 5498 5508 5516 5516 5515 5517 5513 5507 5513 5514 5518 5523 5525 5529 5524 5520 5502 5490 5504 5508 5516 5525 5530 5527 5513 5525 5528
5366 5353 5348 5344 5342 5342 5351 5361 5373 5377 5382 5393 5415 5436 5448 5452 5466 5460 5466 5482 5500 5511 5514 5508 5511 5515 5513 5505 5510 5505 5516 5521 5525 5518 5517 5506 5489 5502 5493 5505 5511 5526 5524 5519 5526 5531 5535
5365 5353 5349 5350 5351 5353 5361 5370 5382 5387 5394 5413 5431 5441 5451 5454 5461 5466 5470 5478 5498 5509 5509 5509 5505 5502 5509 5511 5510 5510 5510 5510 5516 5515 5509 5505 5491 5485 5485 5490 5505 5516 5522 5524 5530 5531 5532
5366 5354 5350 5355 5360 5365 5372 5383 5392 5403 5414 5425 5438 5447 5454 5460 5460 5472 5474 5475 5500 5508 5506 5500 5507 5509 5501 5499 5503 5505 5504 5507 5504 5500 5511 5501 5490 5471 5462 5483 5477 5523 5524 5527 5528 5531 5526
5366 5358 5358 5362 5368 5373 5384 5395 5409 5424 5439 5439 5443 5451 5454 5454 5464 5474 5473 5477 5491 5491 5494 5498 5496 5498 5501 5501 5498 5504 5496 5511 5503 5494 5500 5508 5493 5481 5463 5453 5498 5523 5513 5516 5522 5531 5519
5367 5365 5368 5372 5381 5391 5403 5413 5423 5435 5445 5444 5444 5449 5455 5457 5455 5449 5475 5488 5493 5486 5487 5493 5498 5501 5504 5498 5497 5494 5485 5492 5489 5496 5495 5493 5501 5491 5491 5473 5504 5512 5518 5520 5522 5506 5510
5371 5374 5380 5388 5398 5410 5418 5425 5437 5444 5451 5453 5448 5454 5457 5443 5439 5449 5477 5490 5492 5488 5481 5493 5503 5509 5507 5488 5496 5486 5471 5485 5482 5485 5488 5494 5494 5496 5490 5466 5486 5504 5513 5514 5500 5502 5500
5380 5383 5394 5406 5416 5423 5433 5440 5450 5457 5457 5462 5449 5455 5459 5441 5442 5452 5462 5477 5491 5494 5493 5492 5505 5507 5499 5498 5497 5487 5480 5478 5482 5485 5484 5484 5476 5492 5486 5487 5472 5506 5508 5503 5496 5490 5491
5394 5399 5410 5418 5425 5433 5446 5459 5465 5464 5466 5469 5457 5459 5455 5453 5447 5454 5462 5468 5472 5480 5487 5482 5493 5495 5496 5481 5481 5478 5486 5471 5475 5484 5483 5489 5488 5479 5481 5488 5496 5495 5496 5490 5486 5485 5485